AirNav   Everest Fuels
 
 612 users online  

PS89 Press Enterprise Heliport
Bloomsburg, Pennsylvania, USA

GOING TO BLOOMSBURG?


FAA INFORMATION EFFECTIVE 18 JUNE 2020

Location

FAA Identifier: PS89
Lat/Long: 41-00-43.3110N 076-24-18.7950W
41-00.721850N 076-24.313250W
41.0120308,-76.4052208
(estimated)
Elevation: 490 ft. / 149 m (estimated)
Variation: 11W (1990)
From city: 2 miles E of BLOOMSBURG, PA
Time zone: UTC -4 (UTC -5 during Standard Time)
Zip code: 17815

Heliport Operations

Heliport use: Private use. Permission required prior to landing
Activation date: 11/1993
Control tower: no
ARTCC: NEW YORK CENTER
FSS: WILLIAMSPORT FLIGHT SERVICE STATION
Attendance: UNATNDD
Wind indicator: yes
Segmented circle: no

Heliport Communications

WX AWOS-3 at 79PN (9 nm W): 118.075 (570-271-8192)
WX AWOS-3 at N79 (12 nm SW): 119.175 (570-672-0389)
WX AWOS-3 at ZER (18 nm S): 127.575 (570-544-2778)
WX AWOS-3 at HZL (19 nm E): 119.975 (570-459-4901)

Nearby radio navigation aids

VOR radial/distance  VOR name  Freq  Var
MIPr102/11.8MILTON VORTAC109.2009W
SEGr067/25.4SELINSGROVE VOR/DME110.4008W
FQMr149/25.7WILLIAMSPORT VOR/DME114.4009W
RAVr029/28.9RAVINE VORTAC114.6011W
LVZr254/35.9WILKES-BARRE VORTAC111.6010W

 
NDB name  Hdg/Dist  Freq  Var  ID
BELLGROVE021/35.232810WBZJ -... --.. .---

Heliport Services

Runway Information

Helipad H1

Dimensions: 60 x 60 ft. / 18 x 18 m
Surface: turf, in good condition
Traffic pattern: leftleft

Heliport Ownership and Management from official FAA records

Ownership: Privately-owned
Owner: PRESS-ENTERPRISE INC
3185 LACKAWANNA AVE
BLOOMSBURG, PA 17815
Phone 570-784-2121
Manager: MICHAEL HUNTINGTON
3185 LACKAWANNA AVE
BLOOMSBURG, PA 17815
Phone 570-784-2121

Additional Remarks

A52-H1 430 FT TOWER 4932 FT NW.
FOR CD CTC WILKES-BARRE APCH AT 570-655-2084.

Instrument Procedures

There are no published instrument procedures at PS89.

Some nearby airports with instrument procedures:

N13 - Bloomsburg Municipal Airport (2 nm SW)
8N8 - Danville Airport (11 nm W)
N79 - Northumberland County Airport (12 nm SW)
KZER - Schuylkill County/Joe Zerbey Airport (18 nm S)
KHZL - Hazleton Regional Airport (19 nm E)
 
Loc | Ops | Rwys | IFR | FBO | Links
Com | Nav | Svcs | Stats | Notes
Area around PS89 (Press Enterprise Heliport)
 
Road maps at: MapQuest Bing Google
 
Aerial photo
No photo
 
Sectional chart

 
Airport distance calculator
Flying to Press Enterprise Heliport? Find the distance to fly.

From to PS89

Sunrise and sunset
Times for 11-Jul-2020
 Local
(UTC-4)
 Zulu
(UTC)
Morning civil twilight05:1209:12
Sunrise05:4509:45
Sunset20:3700:37
Evening civil twilight21:1001:10

Current date and time
Zulu (UTC)  11-Jul-2020 04:28:21
Local (UTC-4)  11-Jul-2020 00:28:21
 
METAR
KHZL 
19nm E 
110417Z AUTO 27006KT 3SM +RA OVC003 21/20 A2975 RMK AO2 P0014
KSEG 
24nm SW 
110353Z AUTO 00000KT 10SM OVC100 23/21 A2972 RMK AO2 SLP061 T02280206
KIPT 
27nm NW 
110354Z AUTO 26005KT 10SM SCT090 23/21 A2970 RMK AO2 SLP053 T02280211
K22N 
32nm E 
110424Z AUTO 00000KT 5SM RA SCT034 OVC049 22/22 A2967 RMK AO2
KAVP 
36nm NE 
110409Z 23003KT 4SM -RA BR OVC010 22/21 A2966 RMK AO2 P0026 T02170211
KMUI 
36nm S 
110356Z AUTO 22007KT 10SM CLR 22/21 A2972 RMK AO2 SLP064 T02170207
TAF
KIPT 
27nm NW 
102114Z 1021/1118 06005KT P6SM VCSH BKN035 OVC100 TEMPO 1021/1024 P6SM -RA OVC035 FM110100 00000KT P6SM BKN080 FM110600 00000KT 6SM BR BKN050 FM110900 00000KT 2SM BR OVC025
NOTAMs
Click for the latest NOTAMs
NOTAMs are issued by the DoD/FAA and will open in a separate window not controlled by AirNav.

 

 
 

Would you like to see your business listed on this page?

 If your business provides an interesting product or service to pilots, flight crews, aircraft, or users of the Press Enterprise Heliport, you should consider listing it here.  To start the listing process, click on the button below
 
Add a business
 

Other Pages about Press Enterprise Heliport

Update a link
 
Copyright © AirNav, LLC. All rights reserved. Privacy Policy  Contact